This demonstration page uses our WeatherBlox Daily Observations layout. Learn more.

Hourly Observations for December 1, 2016

Temp ( °F °C ) Dew Point ( °F °C ) Humidity (%) Winds ( mph kmh ) Pressure ( in mb ) Visibility ( mi km ) Precip ( " mm )
12:17 am 00:17 Mostly Cloudy 30 -1.1 22 -5.6 72 72 W 9 15 30 1016 10 16.0934 0 0
12:54 am 00:54 Cloudy 30 -1.1 22 -5.6 72 72 WNW 10 17 29.98 1015 10 16.0934 0 0
1:54 am 01:54 Cloudy 32 0 23 -5 69 69 WNW 9 15 29.98 1015 10 16.0934 0 0
2:54 am 02:54 Cloudy 32 0 24 -4.4 73 73 W 9 15 29.99 1016 10 16.0934 0 0
3:54 am 03:54 Cloudy 32 0 24 -4.4 73 73 W 8 13 30 1016 10 16.0934 0 0
4:54 am 04:54 Cloudy 32 0 23 -5 69 69 WNW 12 19 30.01 1016 10 16.0934 0 0
5:54 am 05:54 Cloudy 32 0 23 -5 69 69 WNW 8 13 30.01 1016 10 16.0934 0 0
6:54 am 06:54 Cloudy 30 -1.1 24 -4.4 79 79 W 10 17 30.03 1017 10 16.0934 0 0
7:54 am 07:54 Cloudy 31 -0.6 23 -5 72 72 W 9 15 30.05 1018 10 16.0934 0 0
8:54 am 08:54 Cloudy 32 0 24 -4.4 73 73 W 10 17 30.07 1018 10 16.0934 0 0
9:54 am 09:54 Cloudy 35 1.7 25 -3.9 67 67 WNW 10 17 30.07 1018 10 16.0934 0 0
10:54 am 10:54 Mostly Cloudy 37 2.8 24 -4.4 59 59 NW 12 19 30.07 1018 10 16.0934 0 0
11:54 am 11:54 Mostly Cloudy 40 4.4 25 -3.9 55 55 WNW 10 17 30.06 1018 10 16.0934 0 0
12:54 pm 12:54 Sunny 40 4.4 24 -4.4 53 53 WNW 9 15 30.05 1018 10 16.0934 0 0
1:54 pm 13:54 Sunny 42 5.6 24 -4.4 49 49 VRB 5 7 30.03 1017 10 16.0934 0 0
2:54 pm 14:54 Sunny 43 6.1 25 -3.9 49 49 NW 7 11 30.02 1017 10 16.0934 0 0
3:54 pm 15:54 Sunny 42 5.6 25 -3.9 51 51 WNW 7 11 30.04 1017 10 16.0934 0 0
4:54 pm 16:54 Sunny 39 3.9 25 -3.9 57 57 N 6 9 30.05 1018 10 16.0934 0 0
5:54 pm 17:54 Clear 34 1.1 25 -3.9 70 70 NNW 3 6 30.07 1018 10 16.0934 0 0
6:54 pm 18:54 Clear 32 0 24 -4.4 73 73 N 3 6 30.08 1019 10 16.0934 0 0
7:54 pm 19:54 Clear 31 -0.6 24 -4.4 76 76 N 5 7 30.1 1019 10 16.0934 0 0
8:54 pm 20:54 Clear 31 -0.6 24 -4.4 76 76 Calm 30.11 1020 10 16.0934 0 0
9:54 pm 21:54 Clear 28 -2.2 23 -5 81 81 Calm 30.12 1020 10 16.0934 0 0
10:54 pm 22:54 Partly Cloudy 27 -2.8 23 -5 85 85 NNW 6 9 30.13 1020 10 16.0934 0 0
11:54 pm 23:54 Cloudy 27 -2.8 23 -5 85 85 Calm 30.16 1022 10 16.0934 0 0

Powered by AerisWeather